Wind_Speed
76 75 73 70 68 65 63 61 59 58 59 59 60 60 60 59 58 57 56 55 54 53 52 51 49 47 44 42 40 39 39 40 40 41 41 41 41 42 43 45 46 48 48 48 47 47 47 48 49 51 53 55 56 57 57 55 51 46 41 34 27 20 14 9 4 1 4 8 11 14 18 21 25 28 31 34 36 38 40 41 42 43 44 45 45 44
73 71 68 66 63 60 59 58 57 57 58 59 59 59 59 57 56 55 55 54 52 51 50 48 46 44 41 39 38 37 38 38 39 39 39 40 40 41 42 44 45 46 46 45 44 44 45 46 47 49 51 53 54 54 52 48 44 38 32 26 21 16 13 10 9 8 9 11 14 16 20 23 26 29 32 34 36 38 40 41 41 42 42 42 42 42
68 66 63 60 58 56 55 56 56 57 57 58 59 58 57 56 55 54 53 52 50 49 47 45 43 41 39 37 37 36 37 37 38 38 38 38 39 40 41 43 44 44 43 42 42 42 42 44 45 47 49 50 50 49 46 41 36 30 25 20 17 16 16 16 16 16 15 16 17 19 22 25 27 30 32 34 36 38 39 39 40 41 41 40 40 40
63 60 58 56 55 54 54 55 56 57 57 58 58 57 56 55 54 52 51 50 48 46 44 42 40 38 37 36 36 36 36 36 36 36 36 37 37 39 40 42 42 42 41 40 39 39 40 42 43 45 46 47 47 44 39 34 29 24 20 18 18 21 23 23 23 23 22 22 22 23 24 26 28 30 32 33 35 36 37 38 40 41 42 41 40 40
57 55 54 53 53 54 55 55 56 57 57 57 57 56 54 53 52 51 49 48 46 44 42 40 38 36 35 35 35 35 35 35 35 35 35 35 36 38 39 40 40 39 38 38 37 37 38 39 41 42 44 44 42 38 33 28 23 19 17 18 22 26 29 30 30 29 28 27 26 26 27 28 29 30 31 32 34 35 36 38 39 41 42 42 42 41
53 52 52 52 53 54 55 56 57 57 57 57 56 55 53 52 50 49 47 45 43 41 39 37 35 34 34 34 34 34 34 34 34 34 34 34 35 36 38 38 38 37 36 36 35 35 36 37 38 40 40 39 36 32 27 23 19 16 16 19 25 30 34 36 36 34 33 31 30 29 30 30 31 32 33 33 34 35 36 38 39 40 41 41 41 41
51 52 52 53 54 55 56 57 57 57 57 57 55 53 52 50 48 47 45 43 41 39 37 35 34 33 33 33 33 32 32 32 33 33 33 33 34 35 36 36 35 35 34 33 33 33 33 34 35 36 36 35 31 27 23 19 16 14 14 19 25 32 37 40 40 39 37 35 34 33 33 33 34 35 35 36 37 38 38 39 40 40 40 40 39 38
51 53 54 55 55 56 57 57 58 57 57 55 54 52 50 48 46 44 42 40 38 36 35 33 33 32 32 32 31 31 31 31 32 32 32 32 33 34 34 34 33 32 31 31 31 31 31 32 32 33 32 30 27 24 20 16 13 11 13 18 25 32 38 42 43 42 41 39 37 35 35 35 36 37 38 39 40 40 41 41 41 41 41 40 39 38
53 54 55 56 57 57 58 58 58 57 56 54 52 50 48 46 44 42 40 38 36 34 33 32 32 31 31 30 30 30 30 30 30 31 31 31 32 32 32 31 30 29 29 29 29 28 29 29 29 29 28 27 24 22 19 15 11 8 11 17 24 31 38 42 44 44 43 41 39 37 36 35 36 38 40 41 42 42 42 42 41 41 41 40 39 38
55 56 57 57 58 58 59 59 58 56 54 52 50 48 46 44 41 39 37 36 34 33 31 31 31 30 30 29 29 28 28 29 29 30 30 30 30 30 30 29 28 27 27 26 26 26 26 26 26 26 25 23 22 20 18 15 11 7 7 14 21 29 36 41 44 44 43 41 39 36 35 34 35 36 39 40 41 42 42 41 41 40 39 38 37 36
56 57 58 58 59 59 59 59 57 55 52 50 47 45 43 41 39 37 35 34 33 31 31 30 30 30 29 28 27 27 27 28 28 29 29 29 29 29 28 27 25 25 24 24 24 24 24 24 23 23 21 19 18 16 15 12 9 6 6 12 19 26 33 39 43 44 42 40 38 35 34 33 33 34 37 39 40 41 40 40 39 38 36 35 34 34
57 58 59 59 60 60 59 57 55 52 50 47 45 43 41 39 37 35 34 32 31 31 30 30 29 29 28 27 26 26 26 27 27 28 28 28 28 27 26 24 23 22 22 22 22 22 21 21 21 19 18 16 14 12 10 8 7 6 9 13 19 24 30 36 40 42 42 40 37 35 33 32 33 34 36 37 39 39 38 37 36 34 32 31 31 31
59 59 60 60 60 59 58 56 53 50 47 45 43 40 38 36 35 33 32 31 30 30 30 29 29 28 27 26 25 25 25 26 26 27 27 27 27 26 24 22 21 21 20 20 20 20 19 19 18 17 15 13 10 9 7 5 5 7 11 15 19 24 28 32 37 39 41 40 38 35 33 32 32 33 34 35 36 36 35 34 32 31 29 29 28 29
60 60 61 60 60 58 56 53 50 47 44 42 40 38 36 34 33 32 31 30 30 29 29 29 28 27 26 25 24 24 25 25 25 26 26 26 25 24 23 21 20 19 19 19 18 18 17 16 15 14 12 9 7 6 4 3 4 7 11 15 19 23 26 29 33 36 38 38 38 36 34 32 31 31 32 32 32 32 32 31 30 29 29 28 27 27
60 61 60 59 58 56 53 50 47 44 42 40 38 36 34 33 32 31 30 30 29 29 29 28 27 26 25 24 24 23 24 24 24 25 25 25 24 23 21 20 19 18 18 18 17 16 16 14 13 11 9 6 4 2 2 2 4 7 10 13 17 21 25 27 28 30 33 35 36 36 34 33 31 30 30 29 29 28 28 29 29 29 29 28 26 25
60 60 59 57 55 53 49 46 44 41 39 37 36 34 33 32 31 30 29 29 29 29 28 28 26 25 24 23 23 23 23 23 23 24 24 24 23 22 20 19 18 18 18 17 17 16 15 13 12 10 8 5 2 1 2 3 5 7 9 12 16 20 23 25 25 25 26 27 29 31 32 32 32 31 30 29 28 27 27 28 28 28 28 27 26 25
59 58 56 54 52 49 46 43 41 39 37 35 34 33 32 31 30 29 29 29 29 29 28 27 26 25 24 23 22 22 22 22 23 23 23 23 22 21 20 18 18 18 18 17 17 16 15 13 12 10 8 5 3 3 4 5 6 7 9 11 14 18 21 23 23 22 21 21 21 22 24 25 27 28 28 27 27 26 26 27 28 28 28 27 27 26
56 55 53 51 48 46 43 40 39 37 35 34 33 32 31 30 30 29 29 29 29 28 28 27 25 24 24 23 22 22 21 21 22 22 22 22 22 21 19 18 18 18 18 18 17 16 15 14 12 11 9 7 6 6 7 7 8 9 10 11 13 16 19 21 23 23 22 20 19 18 18 18 20 21 21 22 23 23 24 24 25 26 26 26 26 25
53 51 50 48 45 42 40 38 37 35 34 33 32 31 30 30 29 29 29 29 28 28 27 26 25 24 24 23 22 21 21 21 21 21 21 22 21 21 19 18 18 18 18 18 18 17 16 14 13 12 11 10 9 9 9 9 10 11 12 13 14 15 17 19 21 22 23 23 22 21 19 18 18 17 18 18 19 20 21 22 23 23 23 23 23 23
50 48 47 44 42 40 38 37 35 34 33 32 31 31 30 29 29 29 29 28 28 28 27 26 25 24 24 23 22 21 21 20 20 20 20 21 21 21 20 19 19 19 19 19 18 18 17 16 14 13 12 12 11 11 11 11 12 12 13 14 15 16 16 17 18 20 22 23 24 24 23 22 21 20 19 19 18 19 19 20 20 21 21 21 21 21
47 46 44 42 40 38 37 36 34 33 32 31 31 30 30 29 29 29 29 28 28 27 26 26 25 24 24 23 22 21 20 20 19 19 19 19 20 21 20 20 20 20 20 20 19 19 18 17 16 15 14 14 14 13 14 14 13 13 13 14 15 16 17 17 17 17 18 20 21 23 25 25 25 25 24 23 22 22 22 22 21 21 21 22 22 22
45 44 42 40 38 37 36 35 34 32 32 31 31 30 30 29 29 29 29 28 28 27 26 26 25 25 24 24 23 22 21 20 19 19 18 18 19 20 21 21 20 21 21 21 20 20 19 19 17 16 16 16 16 16 16 16 15 15 15 15 15 16 17 17 17 17 16 17 18 20 22 23 25 27 27 28 28 27 26 26 26 25 25 25 26 26
43 42 40 38 37 36 35 34 33 32 31 31 31 30 30 29 29 29 29 28 28 27 26 26 25 25 24 24 23 22 21 20 19 18 18 17 18 20 21 21 21 21 22 22 22 21 21 20 19 18 18 18 18 18 18 18 17 17 16 16 16 16 17 17 18 17 17 16 16 17 18 20 22 24 26 28 29 30 31 31 30 30 30 30 30 30
42 41 39 37 36 35 34 33 33 32 31 31 31 30 30 30 29 29 29 28 28 27 26 26 25 25 25 24 24 22 21 20 19 18 17 17 17 19 21 22 22 22 22 23 22 22 22 22 21 21 20 20 20 20 20 20 19 19 18 17 17 17 17 17 17 18 18 18 17 17 17 18 19 20 22 24 26 28 30 31 31 31 31 31 31 31
41 39 38 37 36 35 34 33 32 32 31 31 31 30 30 30 29 29 29 28 28 27 27 26 26 26 26 25 24 23 22 20 19 18 18 17 17 18 20 22 23 23 23 23 23 23 23 23 23 23 22 22 21 21 22 22 22 21 20 19 19 18 18 17 17 18 18 19 19 19 19 18 18 19 20 21 22 24 26 28 29 30 30 30 30 30
40 38 37 36 35 34 34 33 32 32 31 31 31 30 30 30 29 29 29 29 28 27 27 27 27 26 26 26 25 24 22 21 20 19 18 17 17 18 20 22 23 24 24 24 24 24 24 24 24 24 24 24 24 23 23 24 24 24 23 22 21 20 20 19 19 19 19 20 21 21 21 21 21 20 20 20 21 22 24 25 26 28 29 29 30 30
39 38 37 36 35 34 34 33 32 32 31 31 31 31 30 30 30 29 29 29 28 28 27 27 27 27 27 26 25 24 23 22 20 19 18 18 17 18 19 22 24 25 25 25 25 25 25 25 26 26 26 26 26 26 25 25 26 26 26 25 24 24 23 22 21 21 21 21 22 22 23 24 24 24 23 23 23 23 24 25 26 27 28 29 30 31
39 37 36 36 35 34 33 33 32 32 32 31 31 31 31 30 30 30 29 29 28 28 28 28 27 27 27 27 26 25 24 22 21 20 19 18 18 18 19 21 24 25 26 26 26 26 26 26 27 27 27 27 27 27 27 27 27 27 27 27 27 26 26 25 24 24 23 23 23 24 24 25 26 27 27 27 26 26 26 26 27 27 28 29 30 31
38 37 36 35 35 34 33 33 33 32 32 32 31 31 31 30 30 30 29 29 29 29 28 28 28 28 28 27 27 26 24 23 22 21 20 19 18 18 18 20 23 26 27 27 27 27 27 27 28 28 28 28 29 29 29 29 29 29 29 29 29 29 28 28 27 27 27 26 26 26 26 27 27 28 29 29 30 30 30 30 30 30 30 31 31 32
38 37 36 35 34 34 33 33 33 32 32 32 32 32 31 31 30 30 30 30 29 29 29 29 29 29 28 28 27 26 25 24 23 22 21 20 19 19 18 19 22 25 28 29 28 28 28 28 29 29 29 29 29 30 30 30 30 30 30 30 31 30 30 30 29 29 29 29 29 29 29 29 29 29 30 31 31 32 33 33 33 33 34 34 34 35
38 37 36 35 34 34 33 33 33 33 32 32 32 32 31 31 31 30 30 30 30 30 30 30 29 29 29 29 28 28 26 25 24 22 21 21 20 19 19 19 21 23 27 29 30 30 29 29 29 30 30 30 30 31 31 31 31 31 31 32 32 32 32 32 31 31 31 31 31 32 32 32 32 32 32 32 33 34 34 35 36 36 37 37 38 38
38 36 35 35 34 34 33 33 33 33 33 33 33 32 32 32 31 31 31 31 31 30 30 30 30 30 30 30 29 28 27 26 25 23 22 22 21 20 20 19 20 21 24 28 31 32 32 31 30 30 31 31 31 32 32 32 32 33 33 33 33 33 33 33 33 33 33 33 33 33 34 34 35 35 35 35 35 35 36 36 37 38 39 39 40 40
37 36 35 34 34 34 34 33 33 33 33 33 33 33 32 32 32 31 31 31 31 31 31 31 31 31 31 30 30 29 28 27 26 24 23 23 22 21 21 20 20 21 22 26 29 33 34 34 33 32 32 32 32 32 33 33 33 34 34 34 34 34 34 35 35 35 35 35 35 35 35 36 36 37 37 38 38 38 38 38 38 39 40 40 41 41
37 36 35 35 34 34 34 34 34 34 34 33 33 33 33 32 32 32 32 32 32 32 32 32 31 31 31 31 31 30 29 28 27 25 25 24 23 22 22 21 21 21 21 23 26 30 33 35 36 35 34 33 33 33 34 34 34 35 35 35 35 35 36 36 36 36 37 37 37 37 37 37 38 38 39 39 40 40 40 40 41 41 41 41 42 42
37 36 35 35 34 34 34 34 34 34 34 34 34 33 33 33 32 32 32 32 32 32 32 32 32 32 32 32 31 31 30 29 28 27 26 25 24 23 23 22 22 22 22 22 24 27 30 34 36 37 37 36 36 35 35 35 36 36 36 37 37 37 37 37 37 37 38 38 39 39 39 39 40 40 40 41 41 42 42 42 43 43 43 43 44 44
37 36 35 35 35 34 34 34 34 34 34 34 34 34 33 33 33 33 33 33 33 33 33 33 33 32 32 32 32 32 31 30 29 28 27 26 25 24 24 23 23 23 23 23 23 24 27 30 34 37 39 39 39 38 38 37 37 37 38 38 38 39 39 39 39 39 39 40 40 40 41 41 42 42 42 43 43 44 44 44 45 45 45 46 46 46
37 37 36 35 35 35 35 35 35 35 35 35 34 34 34 34 33 33 33 33 33 33 33 33 33 33 33 33 33 32 32 31 30 29 28 27 26 25 25 24 24 24 24 24 24 24 25 27 30 33 37 39 41 41 41 41 40 40 40 40 40 40 41 41 41 41 41 42 42 42 42 43 43 43 44 44 45 45 46 46 46 47 47 47 48 48
38 37 36 36 35 35 35 35 35 35 35 35 35 35 34 34 34 34 34 34 34 34 34 34 34 34 34 33 33 33 32 32 31 30 29 28 28 27 26 25 25 25 25 25 25 25 25 26 27 30 33 36 39 41 43 43 43 43 43 43 42 43 43 43 43 44 44 44 44 44 45 45 45 45 46 46 46 47 47 48 48 48 49 49 49 49
38 37 37 36 36 36 36 36 36 36 36 36 35 35 35 35 35 35 35 35 35 35 35 35 34 34 34 34 34 34 33 33 32 31 31 30 29 28 27 26 26 25 25 25 26 26 26 27 27 28 30 32 35 38 41 43 44 45 46 46 46 46 45 45 46 46 46 46 47 47 47 48 48 48 48 48 48 49 49 49 50 50 50 50 51 51
39 38 37 37 37 36 36 36 36 36 36 36 36 36 36 35 35 35 35 35 35 35 35 35 35 35 35 35 34 34 34 33 33 32 32 31 30 29 28 28 27 27 26 26 26 27 27 27 28 28 29 30 32 34 37 39 42 45 46 48 48 49 49 49 49 49 49 49 49 50 50 50 50 51 51 51 51 51 52 52 52 52 52 52 53 53
39 39 38 38 37 37 37 37 37 37 37 37 36 36 36 36 36 36 36 36 36 36 36 36 36 36 35 35 35 35 34 34 34 33 33 32 31 30 30 29 28 28 28 27 27 28 28 28 29 29 30 30 31 32 34 36 38 41 44 46 48 50 51 51 52 52 52 52 52 52 52 53 53 53 54 54 54 54 54 54 55 55 55 55 55 55
40 39 39 38 38 38 38 38 38 37 37 37 37 37 37 37 37 37 37 37 37 37 37 37 37 36 36 36 35 35 35 35 35 34 34 33 32 32 31 30 30 29 29 29 29 29 29 29 29 30 30 31 32 32 33 34 36 38 40 42 45 47 50 51 53 54 55 55 55 56 56 56 56 56 56 57 57 57 57 57 57 57 57 58 58 58
40 40 40 39 39 38 38 38 38 38 38 38 38 38 38 38 38 38 38 38 38 38 38 37 37 37 37 36 36 36 36 35 35 35 35 34 34 33 32 32 31 31 30 30 30 30 30 30 31 31 31 32 32 33 34 34 35 36 38 39 41 44 46 48 50 53 54 56 57 58 59 59 59 60 60 60 60 60 60 60 60 60 60 60 60 60
41 41 40 40 39 39 39 39 39 39 39 39 39 39 39 39 38 38 38 38 38 38 38 38 38 37 37 37 37 36 36 36 36 36 36 35 35 34 34 33 33 32 32 31 31 31 31 32 32 32 32 33 33 34 34 35 35 36 37 38 40 41 43 45 47 49 51 53 55 57 59 60 61 62 63 63 63 63 63 63 63 63 63 62 62 62
42 41 41 41 40 40 40 40 40 40 40 40 40 40 39 39 39 39 39 39 39 39 39 38 38 38 38 37 37 37 37 37 37 37 36 36 36 35 35 34 34 34 33 33 33 33 33 33 33 33 33 34 34 34 35 35 36 36 37 38 39 40 42 43 44 46 47 49 51 54 56 58 60 62 63 64 65 66 67 67 67 67 66 66 66 65
42 42 42 41 41 41 41 40 40 40 40 40 40 40 40 40 40 40 40 40 39 39 39 39 39 38 38 38 38 37 37 37 37 37 37 37 37 36 36 36 35 35 35 35 34 34 34 35 35 35 35 35 35 35 35 36 36 37 37 38 39 40 41 42 43 44 45 47 48 50 52 53 55 57 60 62 64 65 67 68 69 69 70 70 70 70
43 43 43 42 42 42 41 41 41 41 41 41 41 41 41 41 41 41 41 40 40 40 40 39 39 39 39 38 38 38 38 38 38 38 38 38 38 38 37 37 37 36 36 36 36 36 36 36 36 36 36 36 36 36 36 36 37 37 38 38 39 40 41 42 43 44 45 45 47 48 49 50 52 53 55 57 59 61 63 64 66 68 69 71 72 72
44 44 43 43 43 42 42 42 41 41 41 41 42 42 42 42 42 41 41 41 41 40 40 40 39 39 39 39 39 38 39 39 39 39 39 39 39 39 39 38 38 38 38 37 37 37 37 37 37 37 37 37 37 37 37 37 37 38 38 39 39 40 41 41 42 43 44 45 46 47 48 49 50 51 52 53 55 56 57 59 61 63 65 67 69 70
44 44 44 44 43 43 43 43 42 42 42 42 42 42 42 42 42 42 42 41 41 41 40 40 40 40 39 39 39 39 39 39 39 39 40 40 40 40 40 39 39 39 39 39 39 39 39 39 39 38 38 38 38 38 38 38 38 39 39 39 40 40 41 41 42 43 43 44 45 46 46 47 48 49 50 51 52 53 54 55 56 57 59 61 63 65
45 45 45 44 44 44 44 43 43 43 43 43 43 43 43 43 43 43 42 42 42 41 41 40 40 40 40 40 40 40 40 40 40 40 41 41 41 41 41 41 41 41 40 40 40 40 40 40 40 40 40 39 39 39 39 39 39 39 39 40 40 41 41 41 42 43 43 44 44 45 46 46 47 48 49 49 50 51 52 53 53 54 55 56 58 59
46 45 45 45 45 44 44 44 44 43 43 43 43 43 44 44 43 43 43 42 42 41 41 41 40 40 40 40 40 40 40 41 41 41 41 41 42 42 42 42 42 42 41 41 41 41 41 41 41 41 41 41 40 40 40 40 40 40 40 40 41 41 41 42 42 42 43 44 44 45 45 46 46 47 47 48 49 49 50 51 51 52 53 53 54 55
Wind_Direction
273 274 275 275 275 275 275 274 274 274 274 275 276 278 280 283 285 287 289 291 291 292 293 293 293 292 291 290 289 289 289 290 292 294 297 300 303 306 309 310 311 312 312 314 315 316 316 318 320 322 325 327 330 332 333 333 334 336 337 340 343 346 351 357 10 90 153 162 167 169 171 172 173 174 174 175 175 175 176 176 177 179 181 182 183 184
272 273 273 273 273 272 272 272 272 272 273 274 276 278 281 284 286 288 290 291 291 292 292 292 291 290 289 288 287 288 289 290 292 295 298 301 305 308 310 311 312 313 314 315 316 317 318 319 321 323 326 329 332 333 334 335 337 340 344 350 358 10 24 42 64 88 112 129 141 149 154 158 161 163 165 167 168 169 170 172 173 175 178 179 180 180
271 271 271 270 270 269 269 269 270 271 272 274 276 279 282 284 287 289 290 290 291 291 291 290 289 288 287 286 286 287 289 290 293 296 299 302 306 309 311 312 313 314 315 317 318 318 319 320 322 325 327 331 333 335 336 338 342 347 355 7 24 41 55 66 76 87 99 112 123 133 140 146 150 154 156 159 162 164 165 167 169 170 171 172 172 174
269 268 268 267 267 266 267 267 269 270 272 274 277 280 283 286 287 289 289 290 290 290 289 288 287 286 285 285 285 287 289 291 294 296 300 303 307 310 311 312 314 315 317 318 319 320 320 321 323 326 329 332 335 337 339 343 348 358 12 32 50 63 70 76 81 87 94 102 111 121 129 136 141 145 148 152 155 158 160 162 164 165 165 165 166 169
265 265 264 264 264 264 265 266 268 270 272 275 278 281 284 286 287 288 289 289 289 288 287 286 284 283 283 283 285 287 289 291 294 297 300 304 308 310 312 313 315 316 318 319 320 320 321 322 324 327 330 334 336 339 342 348 357 11 31 53 68 75 78 80 83 87 92 98 106 113 120 126 131 136 140 144 148 151 154 158 160 161 161 162 165 169
262 261 261 261 261 262 264 266 268 270 273 276 279 282 284 286 287 288 288 288 287 286 285 283 282 281 281 283 284 287 289 292 294 298 301 305 309 311 313 314 316 317 318 319 320 321 322 323 325 328 332 335 337 341 345 353 5 23 48 69 80 84 84 84 84 86 90 95 102 108 114 120 124 128 133 137 141 145 148 152 155 157 159 161 165 169
258 258 258 259 260 262 264 266 268 271 273 276 280 283 285 286 286 286 286 286 285 283 282 280 279 279 280 282 284 287 289 292 295 298 302 306 310 312 314 315 317 318 318 319 320 321 322 323 326 329 332 335 338 341 347 356 11 33 61 81 90 92 91 89 87 87 88 92 97 104 110 115 120 124 128 132 136 139 143 147 150 153 156 160 164 168
255 256 256 258 259 261 264 266 269 271 274 277 280 283 284 285 285 285 284 283 282 280 278 277 277 277 279 281 284 287 289 292 295 299 303 307 310 313 314 316 317 318 318 318 319 320 321 324 327 330 333 335 337 340 345 354 11 40 72 90 98 100 99 96 93 91 91 92 95 100 107 112 118 122 127 130 134 137 141 144 148 151 155 159 163 168
253 254 255 257 259 261 264 266 269 272 275 278 281 283 283 283 283 283 282 281 279 277 275 274 275 276 278 280 283 286 288 292 295 299 303 307 311 313 315 316 317 317 316 317 317 319 321 324 327 331 333 335 337 338 341 347 1 37 79 99 107 108 106 103 100 98 97 97 99 102 106 112 118 124 128 132 135 138 141 145 148 152 156 159 164 168
252 253 255 257 259 262 264 267 270 273 276 279 281 281 281 281 281 280 279 277 275 273 272 271 273 275 277 279 282 285 287 291 294 298 303 307 310 313 315 315 315 315 314 314 316 317 320 324 328 331 334 336 338 340 341 344 352 21 82 108 115 116 114 111 108 106 105 105 106 107 110 115 121 126 131 134 137 140 143 146 150 153 157 161 165 170
252 253 255 257 260 263 265 268 271 274 277 279 280 280 279 279 278 277 276 274 271 270 269 269 271 273 275 278 281 283 286 289 293 298 302 307 310 312 314 314 313 312 311 312 313 316 319 323 327 331 334 337 340 344 348 352 0 28 86 113 122 124 122 119 117 114 113 112 113 114 116 119 124 129 134 137 139 142 145 148 151 154 158 162 167 172
252 254 256 258 261 263 266 269 272 275 277 278 278 278 277 276 275 274 272 269 267 266 267 267 269 271 274 277 279 282 284 288 292 297 302 306 309 312 313 312 310 308 307 308 310 313 317 321 326 330 334 337 342 348 356 8 28 68 102 118 125 128 128 126 124 121 120 119 119 120 122 125 129 133 138 140 143 145 147 149 151 155 159 164 169 173
253 255 257 259 262 265 267 270 273 275 276 276 276 275 274 273 272 270 267 265 264 264 265 266 268 270 272 275 277 280 283 287 291 297 301 305 308 310 311 309 306 303 303 303 305 309 313 318 323 328 332 336 341 349 2 23 61 97 114 123 129 132 132 131 129 127 126 125 125 126 128 131 134 138 141 143 145 147 148 150 153 157 161 165 170 174
253 256 258 260 263 266 268 271 273 274 274 274 273 272 271 270 268 266 263 261 261 262 263 265 267 268 270 273 275 278 281 286 291 295 300 303 307 308 308 305 301 297 296 298 300 303 307 313 318 324 329 334 340 350 6 39 87 113 123 129 133 135 135 135 133 132 131 131 131 131 133 136 139 141 143 145 146 148 150 153 157 161 165 168 171 175
254 257 259 262 264 267 269 271 272 272 272 271 270 269 268 266 264 261 259 258 258 260 262 263 265 267 269 270 273 276 280 284 289 294 298 302 304 305 304 300 296 292 291 291 293 296 300 304 310 315 321 326 336 356 36 82 115 128 134 136 137 138 138 137 136 135 136 136 137 138 139 141 143 145 147 147 148 150 152 156 160 164 168 171 173 176
256 258 260 263 265 267 269 270 270 270 269 268 267 266 264 262 260 257 255 255 257 258 260 262 264 265 266 268 270 273 278 283 288 292 296 299 302 302 300 295 290 286 284 285 286 288 292 295 298 302 304 304 295 169 135 135 137 141 144 145 144 143 142 140 139 137 138 139 141 143 145 147 149 151 152 153 154 155 157 160 163 166 170 172 175 177
257 259 261 263 265 267 268 269 268 268 267 266 264 262 260 258 256 254 253 253 255 257 258 260 262 263 264 265 267 271 275 280 286 290 294 297 298 298 296 291 285 280 278 279 279 281 283 285 286 287 283 270 236 191 168 157 152 151 150 151 150 150 148 147 145 144 143 142 144 146 149 152 155 157 159 160 161 162 163 164 166 168 171 174 177 180
257 259 261 263 265 266 267 267 266 265 264 263 261 259 257 254 252 250 250 251 253 255 257 258 259 260 262 262 264 267 272 277 283 288 292 294 294 294 292 287 281 276 273 273 273 275 276 276 275 273 269 255 233 206 186 173 164 158 154 152 153 153 154 153 153 152 151 150 150 151 153 155 157 160 162 164 166 167 168 169 170 172 174 177 180 184
258 259 261 263 264 265 265 264 264 263 261 260 258 255 253 251 249 248 248 249 251 253 255 256 257 258 259 259 261 264 269 274 280 285 288 290 291 290 288 283 278 272 269 267 267 268 270 269 267 264 259 249 233 215 199 187 176 167 160 155 153 153 154 156 158 158 158 158 158 158 159 160 161 162 164 166 168 170 171 173 175 177 180 184 187 191
257 259 260 262 262 263 263 262 261 260 258 257 255 252 250 248 246 246 246 248 249 251 252 254 255 255 256 256 258 261 266 271 276 282 285 286 286 286 284 280 275 270 266 263 262 263 264 263 261 257 253 245 234 219 206 196 188 179 171 163 158 155 155 157 160 163 164 165 165 165 165 166 167 167 168 170 172 174 177 179 181 184 188 192 196 200
257 258 259 260 261 261 261 260 259 257 255 254 251 249 247 245 244 244 245 246 248 249 250 252 252 253 253 254 255 258 262 267 273 278 281 281 280 280 280 277 273 268 265 261 259 259 259 259 256 252 248 243 234 223 211 203 197 191 184 175 168 163 160 159 162 167 171 173 174 173 173 173 173 173 173 175 177 179 183 186 189 192 195 199 202 205
255 256 258 259 259 259 259 258 257 254 253 251 249 247 245 243 243 243 244 245 247 248 249 249 250 251 251 251 253 255 259 264 268 274 277 275 272 272 274 274 271 266 263 261 258 256 255 255 253 249 245 241 236 229 220 212 206 201 195 189 182 175 169 166 166 170 176 182 185 186 185 183 182 181 180 180 181 183 185 188 191 194 197 200 203 206
253 255 256 257 257 257 257 255 254 252 250 248 246 245 243 242 242 242 243 244 245 246 246 247 248 248 248 249 251 253 256 260 265 270 273 270 265 264 267 269 268 265 262 260 258 256 254 252 250 248 244 241 238 235 229 223 218 212 207 202 196 190 183 177 173 173 178 184 192 197 200 199 197 194 192 189 188 188 189 190 192 195 198 200 203 206
252 253 255 255 256 256 255 253 251 249 247 246 244 243 241 241 241 241 242 243 243 244 244 245 246 246 246 247 248 251 254 258 262 267 269 268 262 257 258 261 263 263 262 260 258 256 253 252 250 247 244 241 239 237 236 234 231 227 222 216 211 206 201 193 186 182 182 184 190 197 204 209 211 211 209 205 202 199 197 196 197 198 200 203 206 209
250 252 253 254 255 254 253 251 249 247 245 244 242 241 240 240 240 240 241 242 242 242 243 243 243 243 244 244 246 248 251 255 259 263 266 267 262 254 250 253 257 259 260 260 259 257 254 252 250 248 245 243 241 239 239 238 239 237 235 231 226 221 216 210 203 196 192 190 191 194 199 206 212 217 220 220 218 215 211 208 205 205 206 208 210 213
249 251 252 253 253 252 250 248 247 245 243 242 240 239 239 239 239 240 241 241 241 241 241 241 242 242 242 243 244 246 249 252 256 260 263 266 262 254 246 246 249 254 258 258 258 256 255 253 251 249 247 245 244 243 241 241 241 241 241 239 237 232 228 222 217 211 205 201 198 198 199 201 206 212 218 223 226 226 225 221 218 215 213 213 214 216
249 250 251 252 251 250 248 246 245 243 242 240 239 238 238 238 239 240 240 240 240 240 240 240 240 240 240 241 241 244 247 250 253 257 260 263 263 257 247 242 243 247 252 255 256 256 255 254 252 251 249 248 246 245 245 244 244 244 243 243 242 240 237 232 227 223 217 212 209 206 205 204 205 208 212 217 222 227 229 229 227 225 222 220 219 219
248 249 250 250 249 248 246 245 243 242 240 239 238 237 237 238 239 240 240 239 239 239 239 239 239 239 239 239 240 242 244 247 251 254 257 260 262 259 252 244 240 240 245 250 254 256 255 254 253 252 251 250 249 248 247 247 247 247 246 246 245 244 243 240 237 233 229 224 220 216 214 212 210 210 212 214 217 222 226 229 231 231 229 227 225 223
247 248 249 249 248 246 244 243 242 240 239 238 237 237 237 237 238 239 239 238 238 238 238 238 238 238 238 238 238 240 242 245 248 251 255 257 259 260 257 249 241 237 239 243 248 253 254 254 254 253 252 251 251 250 249 248 248 248 248 249 249 248 247 245 244 241 238 235 231 228 224 221 219 217 217 217 218 220 223 226 229 231 233 233 231 230
247 248 248 247 246 244 243 242 241 240 238 237 236 236 236 237 238 238 238 238 238 238 238 238 238 238 237 237 237 238 240 243 246 249 252 254 256 258 258 253 246 240 237 238 241 247 251 253 254 254 253 253 252 252 251 250 250 249 249 250 250 251 250 249 248 246 244 242 240 237 234 232 229 226 224 223 223 223 224 225 228 230 233 235 236 235
246 246 246 245 244 243 242 241 240 239 237 236 236 236 236 236 237 237 237 237 237 237 237 237 237 237 237 237 237 237 239 241 244 247 250 252 254 257 257 256 251 245 239 237 237 240 245 250 253 254 254 254 254 253 253 252 252 252 251 251 251 252 252 252 251 250 248 247 245 243 241 240 238 236 234 232 231 230 229 229 230 231 233 235 237 238
245 245 244 243 242 241 241 240 239 238 237 236 236 235 236 236 236 236 237 237 237 237 237 237 237 237 237 237 236 237 238 240 243 245 248 251 253 255 256 257 255 251 245 240 237 237 240 244 248 252 254 254 255 254 254 254 254 254 254 253 253 253 253 253 253 252 251 250 249 248 246 245 244 243 242 241 239 238 237 236 236 236 236 237 238 240
244 244 243 242 241 240 240 239 238 237 236 236 235 235 236 236 236 236 236 236 236 236 236 237 237 237 237 237 237 237 238 240 242 244 247 250 252 254 256 257 257 255 251 245 241 239 239 240 243 247 250 253 254 255 255 255 255 255 255 255 255 255 255 255 254 254 253 253 252 251 250 250 249 248 248 247 246 245 244 244 243 242 242 242 242 243
243 242 242 240 239 239 239 238 237 237 236 235 235 235 236 236 236 236 236 236 236 236 236 236 237 237 237 236 237 237 238 240 241 243 246 248 251 253 255 256 257 257 256 252 247 243 241 240 241 243 245 248 251 253 254 254 255 255 255 256 256 256 257 257 256 256 256 255 255 254 254 253 253 252 252 252 252 251 251 250 250 249 249 248 248 248
242 241 240 239 238 238 238 237 237 236 236 235 235 235 236 236 236 236 236 236 236 236 236 236 237 237 237 237 237 237 238 239 241 243 245 247 249 252 254 256 257 258 258 257 254 249 245 243 242 242 243 245 247 249 251 253 254 254 255 255 255 256 256 257 257 257 257 257 257 257 256 256 255 255 255 255 255 255 255 255 255 255 255 255 254 254
242 241 239 238 237 237 237 237 236 236 236 235 235 235 236 236 236 236 236 236 236 236 236 237 237 237 237 237 237 237 238 239 241 242 244 246 249 251 253 255 257 258 259 259 258 256 252 249 246 244 244 244 245 246 248 250 251 253 254 254 254 255 255 256 256 257 257 257 258 258 258 258 258 258 258 258 257 258 258 258 258 258 259 259 259 259
241 240 239 237 237 236 236 236 235 235 235 235 235 235 235 236 236 236 236 236 236 237 237 237 237 237 237 238 238 238 238 239 240 242 243 245 248 250 252 254 256 257 259 259 260 259 258 255 252 249 247 246 245 246 247 248 249 250 251 253 253 254 254 255 255 255 256 256 256 257 258 258 259 259 259 259 259 259 259 260 260 260 260 261 261 261
241 239 238 237 236 236 235 235 235 235 235 235 235 235 236 236 236 236 236 236 236 237 237 238 238 238 238 238 238 239 239 240 241 242 243 245 247 249 252 253 255 257 258 259 260 260 260 259 257 255 252 250 249 248 248 248 249 249 250 251 252 253 254 254 255 255 255 255 256 256 257 257 258 258 259 259 260 260 260 261 261 261 261 262 262 262
240 239 238 237 236 235 235 234 234 234 234 235 235 235 235 236 236 236 236 237 237 237 238 238 238 238 238 239 239 239 240 240 241 242 244 245 247 249 251 253 255 257 258 259 260 261 261 261 260 259 258 256 254 252 251 251 250 250 250 251 251 252 253 253 254 255 255 255 256 256 256 256 257 257 258 258 259 259 260 261 261 262 262 262 262 263
240 239 238 237 236 235 234 234 233 233 234 234 235 235 235 236 236 236 236 237 237 238 238 238 239 239 239 239 240 240 240 241 242 243 244 245 247 249 251 253 255 257 258 259 260 261 261 262 262 262 261 260 259 257 256 254 253 253 253 252 252 252 253 253 254 254 255 255 256 256 256 257 257 257 257 258 258 258 259 260 260 261 262 262 262 263
240 239 238 237 236 235 234 233 233 233 233 234 234 235 235 236 236 236 236 237 237 238 238 239 239 240 240 240 240 241 241 242 243 244 245 246 248 249 251 253 255 257 258 259 261 261 262 262 263 263 263 263 262 261 260 259 257 256 256 255 255 254 254 254 254 254 255 255 256 256 256 257 257 257 257 258 258 258 259 259 260 261 261 262 262 262
239 239 238 237 236 235 234 233 233 232 233 233 234 234 235 235 236 236 236 237 237 238 238 239 240 240 241 241 241 242 242 243 243 244 245 247 248 250 252 254 256 257 259 260 261 262 263 263 264 264 265 264 264 264 263 262 261 260 259 258 258 257 257 256 256 256 256 256 256 256 256 257 257 258 258 258 258 259 259 259 260 260 261 261 262 262
239 238 238 237 236 235 234 233 233 232 232 233 233 234 234 235 235 236 236 237 237 238 238 239 240 240 241 242 242 242 243 244 244 245 246 248 249 251 252 254 256 257 259 261 262 263 264 264 265 265 266 266 266 266 265 265 264 264 263 262 262 261 260 259 259 258 258 258 258 257 257 258 258 258 258 259 259 259 259 260 260 260 260 261 261 262
238 238 238 237 236 236 235 234 233 233 232 233 233 234 234 235 235 236 236 237 237 238 239 239 240 241 242 242 243 243 244 244 245 246 247 248 250 251 253 254 256 258 259 261 262 264 265 265 266 266 267 267 267 267 267 267 267 266 266 265 265 264 263 263 262 261 261 260 260 259 259 259 259 259 259 259 259 260 260 260 260 260 261 261 261 262
237 238 237 237 237 236 235 234 233 233 233 233 233 234 234 235 235 236 236 237 238 238 239 240 240 241 242 243 243 244 245 245 246 247 248 249 250 252 253 255 257 258 260 261 263 264 265 266 267 267 268 268 269 269 269 269 269 269 268 268 267 267 266 266 265 265 264 263 263 262 262 261 261 261 261 260 260 260 260 261 261 261 261 261 261 262
237 237 237 237 237 236 235 235 234 233 233 233 233 234 234 235 235 236 237 237 238 239 239 240 241 242 242 243 244 245 245 246 247 248 249 249 251 252 254 255 257 258 260 262 263 265 266 267 268 268 269 270 270 270 271 271 271 271 271 270 270 269 269 268 268 267 267 266 266 265 265 264 264 263 263 262 262 262 262 262 262 262 262 262 262 262
236 237 237 237 237 236 236 235 234 234 234 234 234 234 235 235 236 236 237 238 239 239 240 240 241 242 243 244 245 245 246 246 247 248 249 250 251 252 254 255 257 259 260 262 263 265 266 268 269 270 270 271 272 272 273 273 273 273 273 273 272 272 271 271 270 270 269 269 269 268 268 267 267 266 266 265 265 264 264 264 263 263 263 263 263 263
236 236 236 237 237 236 236 236 235 235 234 234 234 235 235 236 236 237 237 238 239 240 240 241 242 243 244 244 245 246 246 247 248 249 249 250 252 253 254 256 257 259 261 262 264 266 267 268 269 271 272 272 273 274 275 275 275 275 275 275 275 275 274 273 273 272 272 272 271 271 271 270 270 269 269 269 268 268 267 266 266 265 265 265 264 264
235 236 236 236 237 237 236 236 236 235 235 235 235 235 236 236 237 237 238 238 239 240 241 241 242 243 244 245 246 246 247 248 249 249 250 251 252 253 254 256 257 259 261 262 264 266 268 269 270 271 273 273 275 276 276 277 277 277 277 278 277 277 277 276 276 276 275 275 274 274 274 273 273 272 272 271 271 271 270 269 269 268 268 267 266 266
235 235 236 236 236 237 237 236 236 236 236 236 236 236 237 237 237 238 238 239 239 240 241 242 243 244 244 245 246 247 248 249 249 250 251 251 252 253 255 256 258 259 261 263 265 266 268 269 271 272 273 274 276 277 278 278 279 279 279 279 279 279 279 279 279 278 278 278 278 277 277 276 276 275 275 274 274 273 273 272 272 271 270 269 269 268
234 235 235 236 236 237 237 237 237 237 237 237 237 237 237 238 238 238 239 239 240 241 241 242 243 244 245 246 247 247 248 249 249 250 251 252 253 254 255 256 258 259 261 263 265 267 268 270 272 273 274 275 276 278 279 280 281 281 281 281 281 281 281 281 281 280 281 280 280 280 280 279 279 278 278 277 277 276 275 275 274 273 272 272 271 270
Height
10570 10571 10572 10573 10574 10575 10575 10576 10577 10578 10577 10578 10578 10578 10578 10579 10580 10580 10579 10578 10577 10576 10575 10573 10572 10571 10570 10569 10569 10568 10568 10566 10564 10562 10560 10558 10557 10555 10553 10550 10547 10544 10541 10538 10535 10531 10528 10525 10522 10519 10516 10513 10508 10503 10497 10491 10484 10478 10471 10465 10460 10456 10453 10451 10449 10448 10448 10449 10450 10452 10454 10457 10461 10465 10470 10474 10480 10485 10490 10496 10501 10506 10513 10521 10526 10529
10566 10567 10568 10569 10570 10571 10571 10572 10573 10574 10574 10574 10575 10575 10575 10576 10576 10576 10576 10575 10574 10573 10571 10570 10569 10568 10567 10566 10566 10566 10565 10564 10562 10560 10558 10557 10556 10554 10551 10548 10545 10543 10540 10537 10534 10531 10528 10525 10522 10519 10516 10513 10509 10504 10498 10493 10486 10480 10475 10469 10464 10460 10457 10455 10453 10452 10452 10453 10453 10455 10458 10461 10464 10468 10473 10477 10482 10487 10493 10498 10505 10512 10520 10523 10525 10529
10562 10563 10564 10565 10566 10567 10568 10568 10570 10570 10570 10571 10571 10571 10573 10573 10573 10573 10572 10571 10570 10570 10568 10567 10566 10565 10565 10565 10564 10564 10563 10561 10560 10558 10557 10556 10554 10552 10550 10547 10544 10541 10538 10536 10533 10530 10527 10525 10522 10519 10516 10513 10510 10505 10500 10495 10489 10483 10478 10473 10468 10465 10461 10460 10458 10457 10457 10458 10459 10460 10462 10465 10468 10473 10478 10481 10486 10492 10498 10502 10507 10514 10521 10524 10527 10531
10558 10559 10560 10561 10562 10563 10564 10565 10566 10566 10567 10568 10568 10569 10570 10570 10570 10569 10568 10568 10567 10566 10565 10565 10563 10563 10562 10562 10562 10561 10561 10559 10558 10556 10555 10554 10553 10551 10548 10545 10543 10540 10537 10535 10532 10530 10527 10525 10522 10520 10517 10514 10510 10506 10501 10496 10491 10486 10481 10477 10473 10470 10466 10465 10463 10463 10463 10463 10465 10466 10468 10470 10473 10478 10483 10486 10491 10496 10501 10504 10509 10515 10520 10526 10531 10536
10554 10555 10556 10557 10558 10560 10560 10561 10563 10563 10564 10565 10565 10566 10566 10566 10566 10566 10565 10565 10564 10563 10562 10561 10561 10560 10560 10560 10560 10559 10558 10557 10556 10555 10553 10553 10551 10549 10546 10544 10541 10539 10536 10534 10531 10530 10528 10526 10523 10521 10518 10515 10511 10508 10503 10499 10494 10490 10485 10481 10478 10475 10472 10470 10469 10468 10469 10470 10470 10472 10474 10476 10480 10483 10486 10490 10495 10500 10503 10508 10512 10516 10520 10526 10532 10538
10550 10551 10553 10554 10555 10556 10557 10558 10559 10560 10560 10561 10562 10563 10563 10563 10563 10563 10562 10561 10561 10560 10560 10559 10559 10558 10558 10558 10558 10557 10556 10555 10553 10553 10551 10551 10550 10548 10545 10542 10540 10538 10535 10533 10531 10530 10528 10526 10524 10522 10519 10516 10513 10510 10505 10501 10497 10493 10489 10485 10482 10479 10477 10476 10475 10475 10475 10475 10476 10478 10480 10481 10484 10487 10490 10493 10498 10502 10506 10511 10516 10519 10522 10526 10530 10535
10546 10548 10549 10550 10551 10552 10554 10555 10556 10556 10557 10558 10559 10560 10560 10560 10560 10559 10559 10558 10558 10557 10557 10556 10556 10556 10556 10556 10556 10555 10553 10552 10551 10550 10550 10549 10548 10546 10543 10541 10539 10536 10535 10533 10531 10530 10529 10527 10525 10523 10521 10518 10515 10511 10508 10504 10500 10496 10492 10489 10486 10483 10482 10481 10481 10481 10481 10481 10483 10483 10485 10486 10488 10491 10493 10497 10501 10505 10509 10515 10518 10521 10524 10527 10531 10534
10543 10544 10545 10546 10548 10549 10550 10551 10552 10553 10555 10555 10556 10556 10556 10556 10556 10556 10556 10555 10555 10555 10555 10554 10554 10554 10554 10554 10553 10553 10551 10550 10549 10548 10548 10547 10546 10544 10542 10540 10538 10536 10534 10532 10531 10530 10530 10528 10526 10525 10522 10520 10516 10513 10510 10506 10503 10499 10496 10493 10490 10488 10486 10485 10486 10487 10488 10488 10490 10490 10490 10491 10493 10495 10497 10500 10503 10507 10511 10516 10520 10523 10526 10530 10533 10536
10539 10540 10541 10543 10544 10545 10546 10548 10549 10550 10551 10553 10553 10553 10553 10553 10553 10553 10553 10552 10552 10552 10552 10551 10551 10552 10552 10552 10551 10550 10550 10548 10548 10546 10546 10545 10544 10543 10541 10539 10537 10535 10534 10532 10531 10530 10530 10529 10527 10525 10523 10520 10518 10515 10512 10509 10506 10503 10500 10497 10494 10491 10490 10489 10490 10491 10493 10494 10495 10496 10496 10497 10498 10499 10501 10503 10506 10509 10513 10517 10521 10525 10528 10533 10537 10539
10535 10536 10538 10539 10541 10542 10543 10544 10545 10547 10549 10550 10550 10550 10550 10550 10550 10550 10550 10549 10550 10550 10550 10550 10550 10550 10550 10550 10549 10548 10548 10546 10546 10545 10544 10543 10543 10541 10540 10538 10536 10535 10533 10532 10531 10531 10530 10529 10528 10526 10524 10521 10519 10516 10514 10511 10508 10506 10503 10500 10498 10495 10493 10492 10493 10495 10496 10498 10500 10501 10502 10503 10503 10504 10505 10507 10510 10513 10516 10520 10524 10528 10533 10537 10539 10540
10531 10533 10535 10536 10537 10539 10540 10541 10543 10544 10546 10546 10546 10546 10547 10547 10547 10546 10546 10546 10546 10547 10547 10548 10548 10548 10548 10547 10547 10546 10546 10545 10544 10543 10542 10541 10541 10540 10538 10537 10536 10535 10533 10533 10531 10531 10530 10529 10528 10526 10525 10523 10521 10519 10516 10514 10511 10509 10506 10504 10501 10498 10496 10495 10495 10496 10498 10500 10503 10504 10505 10507 10508 10509 10510 10512 10515 10518 10520 10523 10527 10530 10533 10535 10536 10537
10528 10530 10531 10532 10534 10535 10536 10538 10540 10541 10543 10543 10543 10543 10543 10544 10544 10544 10544 10544 10544 10545 10545 10545 10546 10546 10546 10545 10545 10545 10544 10543 10542 10541 10540 10540 10539 10538 10537 10536 10535 10534 10533 10532 10531 10531 10530 10529 10528 10527 10526 10525 10523 10521 10520 10517 10515 10512 10510 10508 10506 10504 10501 10499 10498 10498 10500 10503 10505 10507 10509 10510 10511 10513 10514 10516 10518 10520 10522 10525 10527 10530 10531 10533 10535 10536
10525 10526 10527 10529 10530 10532 10533 10535 10537 10538 10539 10540 10540 10540 10540 10541 10541 10541 10541 10541 10541 10542 10543 10543 10543 10543 10544 10544 10543 10543 10542 10541 10540 10540 10539 10538 10538 10537 10536 10535 10535 10533 10533 10532 10531 10531 10530 10530 10528 10527 10526 10525 10525 10523 10521 10520 10518 10516 10513 10512 10511 10510 10508 10506 10504 10503 10503 10505 10506 10508 10511 10512 10514 10515 10517 10518 10520 10521 10523 10525 10527 10529 10531 10533 10535 10537
10521 10522 10524 10525 10527 10529 10531 10532 10534 10535 10535 10536 10536 10537 10537 10538 10538 10538 10539 10539 10539 10540 10540 10541 10541 10541 10541 10541 10541 10541 10540 10539 10538 10538 10537 10536 10536 10536 10535 10534 10533 10533 10532 10531 10531 10531 10531 10530 10528 10528 10526 10526 10525 10523 10522 10521 10520 10518 10516 10514 10513 10513 10511 10510 10508 10506 10506 10506 10508 10510 10512 10514 10516 10518 10519 10520 10520 10521 10523 10525 10526 10528 10530 10533 10535 10538
10517 10519 10521 10522 10524 10526 10528 10529 10530 10531 10531 10532 10533 10534 10535 10535 10536 10536 10536 10536 10537 10538 10538 10538 10538 10539 10540 10540 10540 10539 10538 10538 10536 10536 10535 10535 10535 10535 10534 10533 10533 10533 10532 10531 10531 10531 10531 10530 10529 10528 10527 10526 10526 10525 10523 10522 10521 10519 10518 10516 10515 10515 10515 10514 10513 10511 10510 10510 10510 10511 10513 10515 10516 10518 10518 10519 10520 10521 10523 10525 10526 10528 10531 10533 10536 10538
10514 10516 10517 10519 10521 10523 10524 10526 10527 10528 10528 10529 10530 10531 10531 10532 10533 10533 10534 10534 10535 10535 10535 10536 10536 10536 10537 10538 10538 10538 10537 10536 10535 10534 10533 10533 10533 10533 10533 10532 10531 10531 10531 10531 10531 10531 10531 10530 10530 10529 10528 10528 10527 10526 10525 10524 10523 10521 10520 10519 10517 10516 10516 10516 10516 10516 10516 10515 10515 10514 10515 10515 10516 10517 10518 10520 10521 10522 10524 10526 10528 10530 10532 10535 10537 10539
10511 10513 10514 10516 10518 10519 10521 10522 10523 10524 10525 10526 10526 10528 10528 10529 10530 10531 10531 10532 10532 10533 10533 10533 10534 10535 10535 10535 10535 10536 10535 10535 10533 10533 10532 10531 10531 10531 10531 10531 10531 10530 10530 10530 10530 10530 10530 10530 10530 10530 10529 10528 10528 10526 10526 10525 10525 10523 10523 10521 10520 10518 10518 10518 10518 10518 10519 10519 10519 10519 10519 10519 10520 10520 10521 10522 10523 10525 10526 10528 10530 10532 10534 10536 10538 10540
10508 10510 10511 10513 10515 10516 10517 10518 10520 10521 10521 10523 10523 10525 10525 10526 10527 10528 10529 10530 10530 10530 10531 10531 10531 10532 10533 10533 10533 10533 10534 10533 10532 10531 10530 10530 10530 10530 10530 10530 10530 10530 10530 10529 10529 10530 10530 10530 10530 10530 10530 10529 10528 10527 10526 10525 10525 10525 10524 10523 10522 10521 10520 10520 10519 10519 10520 10520 10521 10521 10522 10523 10523 10524 10525 10525 10526 10528 10530 10531 10532 10534 10535 10536 10538 10539
10505 10506 10508 10510 10511 10513 10514 10515 10516 10517 10518 10520 10520 10521 10523 10523 10525 10526 10526 10527 10528 10528 10528 10529 10530 10530 10530 10531 10531 10531 10532 10531 10531 10530 10529 10528 10528 10528 10528 10528 10528 10528 10528 10528 10528 10529 10529 10529 10530 10530 10530 10529 10528 10527 10526 10526 10525 10525 10524 10524 10523 10523 10523 10522 10521 10521 10521 10521 10521 10522 10523 10524 10525 10526 10527 10528 10529 10530 10531 10533 10534 10535 10536 10537 10538 10539
10502 10503 10505 10506 10508 10509 10510 10511 10513 10514 10515 10516 10518 10518 10520 10521 10522 10523 10524 10525 10525 10526 10526 10526 10527 10528 10528 10529 10530 10530 10530 10530 10529 10528 10528 10527 10526 10526 10526 10527 10527 10527 10527 10528 10528 10528 10528 10528 10528 10529 10529 10528 10528 10528 10527 10526 10526 10525 10525 10524 10524 10524 10524 10524 10524 10523 10523 10522 10522 10522 10523 10523 10525 10526 10527 10528 10530 10531 10532 10533 10535 10536 10536 10538 10538 10540
10499 10500 10501 10503 10505 10506 10507 10508 10510 10511 10512 10513 10515 10516 10516 10518 10519 10520 10521 10522 10523 10523 10524 10524 10525 10525 10526 10526 10527 10528 10528 10528 10528 10527 10526 10526 10525 10525 10525 10525 10525 10525 10526 10526 10527 10527 10527 10527 10528 10528 10528 10528 10528 10528 10527 10526 10526 10525 10525 10525 10524 10524 10525 10525 10525 10526 10526 10525 10525 10524 10523 10523 10524 10525 10526 10527 10529 10530 10532 10533 10535 10535 10536 10537 10538 10539
10496 10497 10498 10500 10501 10503 10504 10505 10506 10508 10510 10510 10511 10513 10514 10515 10516 10518 10519 10520 10521 10521 10521 10522 10523 10523 10524 10525 10525 10526 10526 10526 10526 10525 10525 10525 10524 10523 10523 10523 10524 10524 10524 10525 10526 10526 10526 10526 10526 10526 10527 10528 10528 10527 10526 10526 10526 10525 10525 10525 10524 10524 10524 10525 10525 10526 10527 10527 10527 10527 10526 10526 10525 10525 10525 10526 10527 10528 10530 10531 10533 10534 10535 10536 10536 10537
10493 10494 10496 10497 10498 10500 10501 10502 10504 10505 10506 10508 10508 10510 10511 10513 10514 10515 10516 10517 10518 10519 10519 10520 10520 10521 10521 10522 10523 10523 10524 10525 10525 10524 10523 10523 10523 10523 10522 10522 10522 10522 10523 10523 10524 10525 10525 10525 10525 10525 10526 10526 10527 10527 10526 10526 10526 10525 10525 10525 10525 10524 10524 10524 10525 10526 10526 10528 10528 10529 10529 10529 10528 10528 10527 10526 10526 10527 10528 10529 10530 10531 10533 10533 10534 10535
10490 10491 10493 10494 10496 10497 10498 10500 10501 10502 10503 10505 10506 10507 10508 10510 10511 10513 10514 10515 10516 10516 10517 10518 10518 10519 10519 10520 10520 10521 10521 10522 10523 10522 10522 10522 10522 10521 10521 10521 10520 10521 10521 10521 10522 10523 10523 10524 10524 10525 10525 10525 10525 10526 10526 10526 10526 10526 10525 10525 10525 10525 10524 10524 10524 10525 10525 10526 10528 10528 10530 10530 10530 10530 10530 10530 10529 10528 10528 10528 10530 10530 10531 10532 10533 10534
10487 10488 10490 10491 10493 10494 10495 10496 10498 10499 10500 10501 10503 10505 10506 10508 10509 10510 10511 10513 10513 10514 10515 10515 10516 10516 10517 10518 10518 10519 10520 10520 10520 10520 10520 10520 10520 10521 10520 10520 10520 10519 10520 10520 10521 10521 10521 10522 10523 10523 10523 10523 10524 10525 10525 10526 10526 10526 10526 10525 10525 10525 10525 10525 10524 10524 10525 10525 10526 10527 10528 10529 10530 10531 10531 10531 10531 10531 10531 10530 10530 10531 10531 10532 10533 10534
10484 10486 10487 10488 10490 10491 10492 10493 10495 10496 10498 10499 10500 10501 10503 10505 10506 10507 10508 10510 10510 10511 10512 10513 10513 10514 10515 10515 10516 10516 10517 10518 10518 10518 10518 10518 10518 10519 10520 10519 10518 10518 10518 10518 10519 10520 10520 10520 10521 10522 10522 10522 10523 10523 10523 10524 10525 10525 10526 10526 10526 10526 10525 10525 10525 10525 10525 10525 10525 10526 10526 10527 10528 10530 10530 10531 10531 10532 10532 10532 10531 10531 10531 10532 10532 10533
10481 10483 10485 10486 10487 10488 10490 10491 10492 10493 10495 10496 10498 10499 10500 10502 10503 10504 10505 10506 10508 10508 10510 10510 10511 10512 10513 10513 10514 10515 10515 10516 10516 10516 10516 10516 10517 10517 10518 10518 10518 10517 10516 10516 10517 10518 10518 10518 10519 10520 10521 10521 10521 10521 10521 10522 10523 10524 10525 10525 10526 10526 10526 10526 10525 10525 10525 10525 10525 10525 10525 10526 10526 10528 10528 10530 10530 10531 10531 10532 10532 10532 10531 10531 10531 10532
10478 10480 10481 10483 10484 10485 10486 10488 10489 10490 10492 10493 10495 10496 10498 10499 10500 10501 10502 10504 10505 10506 10507 10508 10509 10510 10510 10511 10511 10513 10513 10514 10514 10515 10515 10515 10515 10515 10516 10516 10517 10516 10516 10515 10515 10516 10516 10517 10517 10518 10519 10520 10520 10520 10520 10520 10521 10521 10523 10523 10524 10525 10526 10526 10526 10525 10525 10525 10525 10525 10525 10525 10525 10526 10526 10528 10528 10530 10530 10531 10531 10531 10531 10531 10531 10531
10475 10477 10478 10480 10481 10482 10483 10485 10486 10488 10489 10490 10492 10493 10495 10496 10497 10498 10500 10501 10502 10503 10504 10505 10506 10507 10508 10509 10510 10510 10511 10511 10512 10513 10513 10513 10513 10513 10514 10515 10515 10515 10515 10515 10514 10514 10515 10515 10516 10516 10516 10517 10518 10518 10518 10519 10519 10520 10520 10521 10522 10523 10523 10525 10525 10525 10525 10525 10525 10525 10525 10525 10525 10525 10525 10526 10526 10527 10528 10529 10530 10530 10530 10530 10530 10530
10472 10474 10475 10476 10478 10479 10480 10481 10483 10485 10486 10488 10489 10491 10492 10493 10495 10496 10497 10498 10500 10500 10501 10503 10503 10505 10506 10506 10508 10508 10509 10510 10510 10511 10511 10511 10511 10511 10512 10513 10513 10513 10514 10514 10513 10513 10513 10513 10513 10514 10515 10515 10516 10516 10516 10517 10517 10518 10518 10519 10520 10520 10521 10522 10523 10524 10524 10525 10525 10524 10524 10524 10524 10524 10525 10525 10525 10526 10526 10526 10528 10528 10528 10529 10529 10529
10469 10471 10472 10473 10475 10476 10478 10479 10480 10481 10483 10485 10486 10488 10490 10491 10492 10493 10495 10496 10496 10498 10498 10500 10501 10502 10503 10504 10505 10506 10506 10508 10508 10510 10510 10510 10510 10510 10510 10510 10511 10511 10512 10513 10513 10512 10512 10511 10511 10512 10513 10513 10514 10515 10515 10515 10515 10516 10516 10516 10517 10518 10519 10520 10520 10521 10522 10523 10523 10523 10523 10523 10523 10523 10523 10523 10524 10524 10525 10525 10525 10526 10526 10526 10527 10527
10466 10468 10469 10471 10472 10473 10475 10476 10477 10479 10480 10482 10483 10485 10486 10488 10490 10491 10492 10493 10494 10495 10496 10497 10498 10500 10501 10501 10503 10503 10505 10505 10506 10507 10508 10508 10508 10508 10508 10509 10509 10510 10510 10511 10511 10511 10511 10511 10510 10510 10511 10511 10511 10512 10513 10513 10513 10514 10514 10515 10515 10516 10516 10517 10518 10519 10520 10520 10521 10521 10521 10522 10522 10522 10522 10522 10522 10523 10523 10523 10523 10523 10524 10524 10525 10525
10463 10465 10466 10468 10469 10470 10471 10473 10474 10476 10477 10479 10480 10482 10484 10485 10486 10488 10489 10490 10491 10493 10493 10495 10496 10496 10498 10499 10500 10501 10502 10503 10504 10505 10506 10506 10506 10506 10506 10507 10507 10508 10508 10508 10509 10509 10510 10510 10510 10510 10510 10510 10510 10510 10511 10511 10511 10512 10512 10512 10513 10513 10513 10515 10515 10516 10516 10517 10518 10518 10519 10520 10520 10520 10520 10521 10521 10521 10521 10521 10521 10521 10521 10521 10521 10522
10460 10461 10463 10465 10466 10468 10469 10470 10471 10473 10475 10476 10478 10479 10481 10482 10484 10485 10486 10488 10489 10490 10491 10492 10493 10494 10495 10496 10498 10498 10500 10501 10502 10503 10503 10503 10504 10504 10505 10505 10505 10506 10506 10506 10506 10507 10508 10508 10508 10508 10508 10508 10508 10508 10509 10509 10510 10510 10510 10510 10511 10511 10511 10511 10512 10513 10513 10514 10515 10516 10516 10516 10517 10518 10518 10518 10518 10519 10519 10519 10519 10519 10520 10520 10520 10520
10456 10458 10460 10461 10463 10465 10466 10467 10468 10470 10471 10473 10475 10476 10478 10480 10481 10482 10483 10485 10486 10487 10488 10490 10490 10491 10493 10494 10495 10496 10497 10498 10500 10501 10501 10501 10501 10502 10503 10503 10503 10504 10504 10504 10505 10505 10505 10506 10506 10506 10506 10506 10507 10507 10507 10507 10508 10508 10508 10508 10509 10509 10509 10510 10510 10510 10510 10511 10511 10512 10513 10513 10514 10515 10515 10515 10515 10516 10516 10516 10516 10516 10517 10517 10517 10517
10453 10455 10456 10458 10460 10461 10463 10464 10466 10467 10468 10470 10472 10473 10475 10476 10478 10480 10481 10482 10483 10485 10486 10487 10488 10489 10490 10491 10493 10493 10495 10496 10497 10498 10499 10499 10500 10500 10500 10501 10501 10501 10502 10502 10503 10503 10503 10503 10504 10505 10505 10505 10505 10505 10505 10506 10506 10506 10506 10506 10506 10507 10507 10507 10508 10508 10508 10508 10508 10509 10510 10510 10510 10511 10511 10511 10512 10513 10513 10513 10513 10513 10514 10514 10514 10514
10450 10451 10453 10455 10457 10458 10460 10461 10463 10464 10466 10467 10469 10471 10472 10474 10475 10476 10478 10479 10480 10481 10483 10484 10485 10486 10488 10489 10490 10491 10493 10494 10495 10496 10496 10497 10498 10498 10498 10499 10500 10500 10500 10500 10500 10501 10501 10501 10501 10502 10502 10503 10503 10503 10503 10504 10504 10504 10504 10505 10505 10505 10505 10505 10505 10506 10506 10506 10506 10506 10506 10506 10507 10507 10508 10508 10508 10509 10509 10510 10510 10510 10510 10511 10511 10511
10446 10448 10450 10452 10454 10455 10457 10458 10460 10461 10463 10465 10466 10468 10470 10471 10472 10473 10475 10476 10477 10478 10480 10481 10483 10484 10485 10486 10488 10489 10490 10491 10492 10493 10494 10495 10495 10496 10496 10496 10497 10498 10498 10498 10498 10498 10499 10499 10500 10500 10500 10500 10500 10501 10501 10501 10501 10502 10502 10502 10503 10503 10503 10503 10503 10503 10503 10503 10504 10504 10504 10504 10504 10504 10505 10505 10505 10505 10505 10506 10506 10506 10506 10507 10507 10507
10443 10445 10447 10449 10451 10453 10454 10456 10457 10459 10460 10462 10463 10465 10466 10468 10470 10471 10472 10473 10475 10476 10477 10478 10480 10481 10482 10483 10485 10486 10487 10488 10490 10490 10491 10492 10493 10493 10494 10495 10495 10495 10496 10496 10496 10496 10496 10496 10497 10497 10497 10498 10498 10498 10498 10499 10499 10499 10500 10500 10500 10500 10500 10501 10501 10501 10501 10501 10501 10501 10501 10501 10501 10501 10501 10501 10501 10501 10501 10502 10502 10503 10503 10503 10503 10503
10440 10441 10444 10446 10448 10450 10451 10453 10455 10456 10458 10460 10461 10463 10464 10465 10466 10468 10469 10470 10471 10473 10474 10475 10476 10478 10479 10481 10482 10483 10485 10485 10486 10488 10488 10490 10490 10491 10491 10492 10493 10493 10493 10494 10494 10494 10494 10495 10495 10495 10495 10495 10495 10495 10496 10496 10496 10496 10496 10497 10497 10497 10498 10498 10498 10498 10498 10498 10498 10498 10498 10498 10498 10498 10498 10498 10499 10499 10499 10499 10499 10499 10499 10500 10500 10500
10437 10438 10440 10443 10445 10446 10448 10450 10452 10453 10455 10456 10458 10460 10461 10462 10463 10465 10466 10467 10468 10470 10471 10472 10473 10475 10476 10478 10479 10480 10481 10483 10484 10485 10486 10486 10488 10488 10489 10490 10490 10490 10491 10491 10491 10491 10492 10492 10492 10492 10492 10493 10493 10493 10493 10493 10493 10494 10494 10494 10494 10494 10495 10495 10495 10495 10495 10495 10495 10495 10495 10495 10495 10495 10495 10495 10495 10496 10496 10496 10496 10496 10496 10496 10496 10496
10434 10435 10437 10440 10441 10443 10445 10447 10449 10451 10452 10454 10455 10456 10458 10459 10460 10461 10463 10464 10465 10466 10468 10469 10470 10471 10473 10475 10476 10477 10478 10480 10481 10482 10483 10484 10485 10486 10486 10487 10488 10488 10488 10488 10489 10489 10489 10490 10490 10490 10490 10490 10490 10490 10490 10490 10491 10491 10491 10491 10491 10491 10491 10491 10491 10492 10492 10491 10491 10492 10492 10491 10491 10491 10491 10491 10492 10492 10492 10492 10492 10492 10492 10492 10492 10493
10431 10432 10435 10436 10438 10440 10443 10445 10446 10448 10450 10451 10452 10453 10455 10456 10458 10459 10460 10461 10462 10463 10465 10466 10468 10469 10470 10471 10473 10475 10476 10477 10478 10479 10480 10481 10482 10483 10483 10484 10485 10485 10485 10486 10486 10486 10486 10486 10487 10487 10487 10487 10487 10487 10487 10488 10488 10488 10488 10488 10488 10488 10487 10488 10488 10488 10488 10488 10488 10488 10488 10488 10488 10488 10488 10488 10488 10488 10488 10488 10488 10488 10488 10488 10488 10489
10428 10430 10431 10433 10435 10437 10439 10441 10443 10445 10446 10448 10449 10451 10452 10453 10455 10456 10457 10458 10460 10461 10462 10463 10465 10466 10467 10468 10470 10471 10473 10474 10475 10476 10477 10478 10479 10480 10480 10481 10482 10482 10483 10483 10483 10483 10483 10483 10484 10484 10485 10485 10485 10485 10485 10485 10485 10485 10485 10485 10485 10485 10484 10484 10484 10485 10484 10484 10484 10484 10484 10484 10484 10484 10484 10484 10484 10484 10484 10484 10484 10485 10485 10485 10485 10485
10425 10426 10428 10430 10432 10434 10436 10438 10440 10441 10443 10445 10446 10448 10449 10450 10452 10453 10454 10455 10456 10458 10460 10461 10462 10463 10465 10466 10467 10468 10470 10471 10472 10473 10474 10475 10476 10476 10477 10478 10479 10480 10480 10480 10480 10480 10480 10480 10481 10481 10481 10481 10481 10481 10481 10481 10481 10481 10481 10481 10481 10481 10481 10481 10481 10481 10480 10480 10480 10480 10480 10480 10480 10480 10480 10480 10480 10480 10480 10480 10480 10480 10480 10480 10480 10480
10421 10423 10425 10426 10428 10430 10432 10435 10436 10438 10440 10441 10443 10445 10446 10448 10449 10450 10451 10453 10454 10455 10456 10458 10460 10460 10461 10463 10465 10466 10466 10468 10469 10470 10471 10472 10473 10474 10475 10475 10476 10476 10476 10477 10477 10477 10477 10477 10478 10478 10478 10478 10478 10478 10478 10479 10479 10478 10478 10478 10478 10478 10478 10477 10477 10477 10476 10476 10476 10476 10476 10476 10476 10475 10475 10475 10475 10475 10475 10475 10475 10475 10475 10475 10475 10475
10418 10420 10421 10423 10425 10427 10429 10431 10433 10435 10437 10438 10440 10441 10443 10445 10446 10447 10448 10450 10451 10452 10454 10455 10456 10458 10459 10460 10461 10463 10464 10465 10466 10467 10468 10469 10470 10471 10471 10472 10473 10473 10473 10474 10474 10474 10475 10475 10475 10475 10475 10475 10475 10475 10475 10476 10476 10475 10475 10475 10475 10475 10474 10473 10473 10473 10473 10473 10472 10471 10471 10471 10471 10471 10470 10470 10470 10470 10470 10471 10471 10471 10471 10471 10470 10470
10415 10416 10418 10420 10422 10424 10426 10428 10430 10432 10434 10435 10437 10438 10440 10441 10443 10444 10445 10447 10448 10450 10451 10453 10454 10455 10456 10458 10459 10460 10461 10462 10463 10464 10465 10466 10466 10467 10468 10469 10469 10470 10470 10470 10471 10471 10471 10471 10471 10471 10471 10471 10471 10471 10472 10472 10472 10472 10472 10471 10471 10471 10470 10470 10470 10469 10469 10468 10468 10468 10468 10467 10466 10466 10466 10466 10465 10465 10465 10466 10466 10466 10466 10466 10465 10465
10412 10413 10415 10417 10418 10420 10422 10425 10426 10428 10430 10432 10434 10435 10437 10438 10440 10441 10443 10444 10445 10447 10448 10450 10451 10452 10453 10455 10456 10457 10458 10459 10460 10461 10461 10463 10463 10464 10465 10465 10466 10466 10466 10467 10467 10468 10468 10468 10468 10468 10468 10468 10468 10468 10468 10469 10469 10469 10468 10468 10468 10467 10466 10466 10466 10465 10465 10465 10464 10463 10463 10463 10462 10462 10461 10461 10461 10460 10460 10460 10461 10461 10461 10460 10460 10460
10409 10410 10412 10414 10415 10417 10419 10421 10423 10425 10427 10429 10431 10432 10433 10435 10436 10438 10440 10441 10443 10444 10445 10447 10448 10450 10451 10452 10453 10454 10455 10456 10457 10458 10458 10459 10460 10461 10461 10461 10462 10463 10463 10463 10463 10464 10464 10464 10465 10465 10465 10465 10465 10465 10465 10465 10465 10465 10465 10465 10464 10463 10463 10462 10461 10461 10461 10460 10460 10460 10459 10458 10458 10458 10457 10456 10456 10456 10455 10455 10455 10455 10455 10455 10455 10455
10406 10408 10409 10411 10412 10414 10416 10418 10420 10422 10424 10426 10427 10429 10430 10431 10433 10435 10436 10438 10440 10441 10443 10444 10445 10446 10448 10449 10450 10451 10452 10453 10454 10455 10455 10456 10456 10457 10458 10458 10459 10459 10460 10460 10460 10460 10460 10460 10460 10461 10461 10462 10462 10462 10462 10461 10461 10461 10461 10461 10460 10460 10460 10458 10458 10458 10457 10456 10456 10455 10455 10454 10453 10453 10453 10452 10451 10451 10451 10450 10450 10450 10450 10450 10450 10450